Regional Weather Roundup
Issued by NWS

Home | Current Version | Previous Version | Text Only | Print | Product List | Glossary On
Versions: 1 2 3 4 5 6 7 8 9 10 11 12 13 14 15 16 17 18 19 20 21 22 23 24 25 26 27 28 29 30 31 32 33 34 35 36 37 38 39 40 41 42 43 44 45 46 47 48 49 50
000
ASUS44 KOUN 180510
RWROK

WEATHER ROUNDUP FOR OKLAHOMA
NATIONAL WEATHER SERVICE NORMAN OK
1100 PM CST SUN DEC 17 2017

NOTE: "FAIR" INDICATES FEW OR NO CLOUDS BELOW 12,000 FEET WITH NO
      SIGNIFICANT WEATHER AND/OR OBSTRUCTIONS TO VISIBILITY.

OKZ001>007-009>012-014-015-017-180600-
NORTHWEST OKLAHOMA AND THE PANHANDLE

CITY           SKY/WX    TMP DP  RH WIND       PRES   REMARKS
GAGE           CLEAR     27  24  89 W9        30.07R WCI  18
GUYMON         CLEAR     27  23  85 SW5       30.04S WCI  22
ENID/WOODRING  CLOUDY    37  37 100 CALM      30.07R FOG
$$

OKZ016-021>023-033>039-044-045-180600-
SOUTHWEST OKLAHOMA

CITY           SKY/WX    TMP DP  RH WIND       PRES   REMARKS
LAWTON/REGL    FOG       33  33 100 NE3       30.11R VSB 1/4
LAWTON/FT SILL FOG       39  39 100 CALM      30.09S VSB 3/8
FREDERICK      CLOUDY    37  35  92 E7        30.07S WCI  32
CLINTON        CLOUDY    31  30  96 SW7       30.09R WCI  24
HOBART         CLOUDY    36  34  92 S5        30.10R WCI  32
ALTUS AFB      CLOUDY    29  25  86 NE3       30.09R
$$

OKZ018>020-024>031-180600-
CENTRAL OKLAHOMA

CITY           SKY/WX    TMP DP  RH WIND       PRES   REMARKS
OKLAHOMA CITY  FOG       39  39 100 S5        30.10R VSB 1/8
OKC/WILEY POST FOG       41  41 100 S5        30.09R VSB 1/2
OKC/TINKER AFB DRZL/FOG  40  40 100 S7        30.09R VSB 1/4
STILLWATER     CLOUDY    44  42  93 S5        30.08S
GUTHRIE        CLOUDY    41  40  96 S6        30.09R FOG
$$

OKZ008-013-054>072-180600-
NORTHEAST OKLAHOMA

CITY           SKY/WX    TMP DP  RH WIND       PRES   REMARKS
TULSA          CLOUDY    46  45  96 S6        30.11R
TULSA/JONES    CLOUDY    46  44  93 S3        30.11R
PONCA CITY     CLOUDY    45  42  89 S5        30.07S
BARTLESVILLE   CLOUDY    44  42  93 S3        30.10R
MUSKOGEE       CLOUDY    44  44 100 S5        30.13R FOG
$$

OKZ032-040>043-046>053-073>077-180600-
SOUTH CENTRAL/SOUTHEAST OKLAHOMA

CITY           SKY/WX    TMP DP  RH WIND       PRES   REMARKS
ARDMORE/DWNTWN CLOUDY    45  43  93 CALM      30.13R
MCALESTER      CLOUDY    47  45  93 S5        30.13S FOG
$$




USA.gov is the U.S. government's official web portal to all federal, state and local government web resources and services.